Regional Weather Roundup
Issued by NWS Wakefield, VA

Home | Current Version | Previous Version | Graphics & Text | Print | Product List | Glossary On
Versions: 1 2 3 4 5 6 7 8 9 10 11 12 13 14 15 16 17 18 19 20 21 22 23 24 25 26 27 28 29 30 31 32 33 34 35 36 37 38 39 40 41 42 43 44 45 46 47 48 49 50
000
ASUS41 KAKQ 220910
RWRAKQ

REGIONAL WEATHER ROUNDUP
NATIONAL WEATHER SERVICE WAKEFIELD VA
500 AM EDT FRI AUG 22 2014

Note: "fair" indicates few or no clouds below 12,000 feet with no
significant weather and/or obstructions to visibility. * = Denotes
station may not report precipitation (e.g., rain,snow,etc.),
thunder or fog.

VAZ042-051-052>054-056-221000-
NORTHERN VIRGINIA

CITY           SKY/WX    TMP DP  RH WIND       PRES   REMARKS
WASH NATIONAL  MOCLDY    75  66  73 N5        29.96S
DULLES         MOCLDY    71  65  81 CALM      29.97S
FORT BELVOIR   MOCLDY    68  68 100 CALM      29.96S FOG
QUANTICO       MOCLDY    74  66  76 N10       29.96S
FREDERICKSBRG* MOCLDY    73  73 100 CALM      29.94S FOG
STAFFORD*      FOG       70  70 100 CALM      29.99S VSB 3/4
WARRENTON      FOG       68  68 100 CALM      29.96R VSB 1/4
CULPEPER*        N/A    N/A N/A N/A CALM      29.97R FOG
MANASSAS*      MOCLDY    70  70 100 CALM      29.96S
LEESBURG*      MOCLDY    70  68  94 N3        29.98S
WINCHESTER     MOCLDY    70  64  83 CALM      29.98F
$$

VAZ048-049-060>072-079>083-221000-
CENTRAL AND SOUTH CENTRAL VIRGINIA...AND NORTH CENTRAL NORTH CAROLINA

CITY           SKY/WX    TMP DP  RH WIND       PRES   REMARKS
RICHMOND       PTCLDY    75  69  81 NW5       29.96S
CHESTERFIELD*  MOSUNNY  N/A N/A N/A CALM      29.97F
HANOVER        MOCLDY    70  69  97 CALM      29.98S
TAPPAHANNOCK*  MOCLDY    71  68  91 CALM      29.96S FOG
CHARLOTTSVILLE CLOUDY    69  67  93 W3        29.98S
ORANGE*        MOCLDY    70  68  94 CALM      29.99R
LOUISA*        FOG       66  66 100 CALM      29.97R VSB 3/4
FARMVILLE*     PTCLDY    72  70  94 SW3       29.96S
SOUTH HILL*    MOCLDY    73  73 100 W3        30.03S
ROANOKE RAPIDS CLOUDY    72  72 100 CALM      29.98S FOG
RALEIGH        PTCLDY    73  70  90 CALM      30.00F
$$

VAZ088>098-221000-
SOUTHEAST VIRGINIA

CITY           SKY/WX    TMP DP  RH WIND       PRES   REMARKS
NORFOLK        MOCLDY    79  72  79 CALM      29.94F
VIRGINIA BEACH CLOUDY    76  72  87 CALM      29.93F
NORFOLK NAVAL  MOCLDY    79  72  79 W3        29.96S
WEST POINT*    MOCLDY    77  74  91 CALM      29.96S VSB 3/4
NEWPORT NEWS   MOCLDY    78  71  79 CALM      29.94F
LANGLEY AFB    MOCLDY    76  75  99 N2        29.94S
FORT EUSTIS    PTCLDY    77  74  89 NW6       29.93F
WILLIAMSBURG*  PTCLDY    77  72  83 CALM      29.95F
FRANKLIN*      CLOUDY    75  72  88 CALM      29.96F
WAKEFIELD      MOCLDY    75  71  87 CALM      29.96S
$$

VAZ020-022-025-037-045-221000-
WESTERN AND SOUTHWEST VIRGINIA

CITY           SKY/WX    TMP DP  RH WIND       PRES   REMARKS
STAUNTON*      CLOUDY    66  64  91 CALM      30.04S
HOT SPRINGS VA LGT RAIN  63  63 100 W13       30.15S VSB<1/4
LYNCHBURG        N/A    N/A N/A N/A W5        30.02F
DANVILLE       MOCLDY    70  68  93 S5        30.01S FOG
MARTINSVILLE   PTCLDY    67  67 100 CALM      30.06R FOG
ROANOKE        PTCLDY    70  65  84 W8        30.05S
BLACKSBURG     FOG       63  63 100 CALM      30.12S VSB 1/4
DUBLIN*        CLEAR     65  65 100 S3        30.11S
MARION*        CLOUDY    69  68  96 W10       30.16F FOG
HILLSVILLE*    PTCLDY    67  65  96 W8        30.13S
RICHLANDS*     PTSUNNY   71  69  92 SW5       30.15F
WISE*          MOCLDY    68  68 100 SW7       30.16S
ABINGDON*      CLOUDY    68  68 100 CALM      30.14R FOG
$$

MDZ021>025-VAZ099-100-221000-
SOUTHERN MARYLAND AND THE DELMARVA PENINSULA

CITY           SKY/WX    TMP DP  RH WIND       PRES   REMARKS
PATUXENT RIVER MOCLDY    74  68  81 NW9       29.94F
BAY BRIDGE APT   N/A     73  68  83 NW6       29.95S
LEONARDTOWN    MOCLDY    72  68  88 CALM      29.96S
DOVER          CLOUDY    72  72 100 N9        29.94S
GEORGETOWN     MOCLDY    71  69  93 SE5       29.94S
EASTON         FOG       73  73 100 CALM      29.98S VSB 1/2
CAMBRIDGE      PTCLDY    72  70  94 CALM      29.93F
SALISBURY      CLOUDY    73  70  90 CALM      29.93F
OCEAN CITY     LGT RAIN  73  70  90 W5        29.94S
WALLOPS ISLAND TSTM      72  70  93 NE3       29.94F FOG
ACCOMACK*      CLOUDY    72  70  94 CALM      29.94S FOG
$$

NCZ012>017-030>032-221000-
EASTERN NORTH CAROLINA

CITY           SKY/WX    TMP DP  RH WIND       PRES   REMARKS
ELIZABETH CITY CLOUDY    77  73  87 W12       29.96R FOG
AHOSKIE*       MOCLDY    72  70  92 CALM      29.97S
EDENTON*       HVY RAIN  75  73  92 NW3       29.97F
CURRITUCK*     CLOUDY    77  74  89 W3        29.96R
KILL DEVIL HLS MOCLDY    80  77  91 CALM      29.94S
MANTEO         MOCLDY    79  75  89 W5        29.95S
CAPE HATTERAS  PTCLDY    79  79 100 W5        29.95F
GOLDSBORO      PTCLDY    76  75  98 SW3       29.96F
WASHINGTON     MOCLDY    76  74  93 N5        29.98R
GREENVILLE     CLEAR     73  73 100 NE5       30.00R FOG
NEW BERN       PTCLDY    78  73  84 CALM      29.98F
WILMINGTON     PTCLDY    76  73  91 CALM      29.99F
$$

VAZ048-221000-
ELSEWHERE

CITY           SKY/WX    TMP DP  RH WIND       PRES   REMARKS
HARRISBURG PA  MOCLDY    68  65  90 CALM      29.97S FOG
BALTIMORE      PTCLDY    69  66  90 CALM      29.96R
ANNAPOLIS      MOCLDY    73  68  84 W5        29.95S
ANDREWS AFB    MOCLDY    72  67  84 NW7       29.96S
WILMINGTON DE  CLOUDY    71  68  90 E8        29.98S
PHILADELPHIA   LGT RAIN  69  66  90 E5        29.97F
WILDWOOD NJ*   CLOUDY    70  66  88 N12       29.96S
ATLANTIC CITY  HVY RAIN  67  67 100 NE13      29.98S FOG
HENDERSON NC   CLEAR     71  69  94 CALM      29.99F
GREENSBORO     MOCLDY    73  68  84 CALM      30.03R
ROCKY MOUNT    FOG       73  71  93 CALM      29.98F VSB 3/4
FAYETTEVILLE   MOCLDY    77  70  79 SW3       29.98F
CHARLOTTE      CLEAR     76  69  79 CALM      30.03F
$$

VAZ100-221000-
MARINE

STATION/POSITION TIME  TEMP    WIND        PRES    WAVE   SWELL
                       AIR SEA DIR/SP/G            HT/PER HT/PER
                 (UTC) (F)     (DEG/KT/KT) (MB)    (FT/S) (FT/S)
44066 TX TWR #4  0900   71 73   30/ 10/ 12 1015.7S   3/ 7   3/ 7
CAPE MAY NJ      0900   71 80   80/  4/  5 1013.4F
LEWES DE         0900   71 73  170/  2/  4 1013.3F
15NM E FENWICK I 0800   76 75              1013.7F   2/ 7
OCEAN-CITY-INLET 0900   73 77  300/  8/ 11 1013.5R
WACHAPREAGUE VA  0900   75 82  220/  2/  4 1013.7F
THOMAS POINT MD  0900   74 78  320/  5/  7 1014.7S
GOOSES REEF MD   0900   76     330/ 10/ 12 1014.3F
COVE POINT MD    0900   76     340/  9/ 11 1013.5F
SOLOMONS ISLAND  0900      80                N/A
BISHOPS HEAD MD  0900   76 80  360/  4/  5 1013.2F
PINEY POINT MD   0900           10/  9/ 10   N/A
POTOMAC MD       0900   77     360/  8/  8 1013.2S
CAMBRIDGE MD     0900   74 79  220/  4/  5 1013.5F
LEWISETTA VA     0900   78 81  350/  8/ 10 1013.5S
RAPPAHANNOCK LGT 0900          240/  9/ 10 1014.2F
STINGRAY PT      0900   79     310/  8/ 10 1014.5F
YORK RVR RNG VA  0900   79     330/  3/  4 1013.5F
YORKTOWN VA      0900   78 81  290/  5/  6 1013.6F
JAMESTOWN VA     0900   77     340/  6/  8   N/A
DOMINION TERM VA 0900   80     310/ 12/ 13 1013.8F
KIPTOPEKE VA     0900      82   90/  1/  1   N/A
CHES BAY BRIDGE  0900   77 79  110/  3/  5 1013.3F
CAPE HENRY VA    0900   76     140/  2/  3 1012.6F
CHESAPEAKE LGHT  0800   76      90/  6/  7 1014.7F
WILLOUBY STN VA  0900   80      CALM  /  1 1012.8R
S CRANEY ISL VA  0900          260/  3/  5 1013.7S
CAPE HENRY BUOY  0900      79                N/A     2/ 6
1ST LANDING BUOY 0900   78     130/  4/  6 1013.5S
CAPE CHARLES BUO 0900      78                N/A     2/ 6   2/ 6
OFFSHORE WE BUOY 0800      78                N/A     2/ 6   2/ 6
64NM E OF VA BCH 0900   76 77  290/  4/  6 1014.0R   2/ 7   2/ 7
DUCK PIER NC     0900   81 78  240/  6/  9 1013.1F
44056 DUCK FRF   0800                        N/A     2/ 7
OREGON INLET NC  0900   81 83  240/  8/  9 1013.9F
HATTERAS NC      0900   81 82  240/  4/  8 1014.6F
DIAMOND SHLS NC  0900   81     240/ 10/ 12 1014.1F   2/ 8   2/ 8
CAPE LOOKOUT NC  0800   82     270/  9/ 11 1015.4F
$$



USA.gov is the U.S. government's official web portal to all federal, state and local government web resources and services.